Location: Rancho Del Sol Observatory
(38.7214°N, 120.6350°W)
Time: 08:59:24
(UTC-08:00)

Vanguard 2 Rocket - Visible Passes

Search period start: 21 January 2020 00:00
Search period end: 31 January 2020 00:00
Orbit: 554 x 3326 km, 32.9° (Epoch: 20 January)

Date Brightness Start Highest point End Pass type
(mag) Time Alt. Az. Time Alt. Az. Time Alt. Az.
21 Jan 8.4 05:20:21 14° SSW 05:23:42 27° SSE 05:29:30 10° E visible
22 Jan 8.6 04:24:29 16° SSE 04:24:45 16° SE 04:28:03 10° ESE visible
22 Jan 7.9 06:31:44 10° WSW 06:36:46 49° SSE 06:45:07 10° E visible
23 Jan 7.8 05:34:23 17° SW 05:37:30 37° SSE 05:43:51 10° E visible
24 Jan 8.0 04:38:25 24° SSE 04:38:27 24° SSE 04:42:54 10° E visible
24 Jan 7.7 06:45:49 10° WSW 06:50:49 52° S 06:59:10 10° E visible
25 Jan 7.5 05:48:14 17° SW 05:51:29 44° SSE 05:58:01 10° E visible
26 Jan 7.4 04:52:13 33° SSE 04:52:21 33° SSE 04:57:18 10° E visible
27 Jan 9.0 03:56:10 13° ESE 03:56:10 13° ESE 03:56:54 10° ESE visible
27 Jan 7.3 06:01:59 15° WSW 06:05:34 47° S 06:12:06 10° ESE visible
28 Jan 7.0 05:05:54 38° S 05:06:23 40° S 05:11:31 10° ESE visible
29 Jan 8.6 04:09:49 18° ESE 04:09:49 18° ESE 04:11:21 10° ESE visible
29 Jan 7.4 06:15:38 11° WSW 06:19:42 44° S 06:26:04 10° ESE visible
30 Jan 6.8 05:19:32 36° SSW 05:20:29 42° S 05:25:37 10° ESE visible
